Regional Weather Roundup
Issued by NWS State College, PA

Home | Current Version | Previous Version | Graphics & Text | Print | Product List | Glossary Off
Versions: 1 2 3 4 5 6 7 8 9 10 11 12 13 14 15 16 17 18 19 20 21 22 23 24 25 26 27 28 29 30 31 32 33 34 35 36 37 38 39 40 41 42 43 44 45 46 47 48 49 50

000
ASUS41 KCTP 200210
RWRCTP

REGIONAL WEATHER ROUNDUP
NATIONAL WEATHER SERVICE STATE COLLEGE PA
1000 PM EDT THU APR 19 2018

Note: "fair" indicates few or no clouds below 12,000 feet with no
significant weather and/or obstructions to visibility.

* = STATION THAT DOES NOT REPORT PRECIPITATION /E.G. RAIN...SNOW...ETC/
    THUNDER OR FOG.

PAZ002>004-007>009-013>016-020>023-029>032-200300-
WESTERN PENNSYLVANIA

CITY           SKY/WX    TMP DP  RH WIND       PRES   REMARKS
ERIE           FAIR      36  25  64 NW14G21   30.25R
MEADVILLE      CLOUDY    31  24  75 NW10G18   30.21R
FRANKLIN*      CLOUDY    31  23  72 NW10G16   30.20R
NEW CASTLE     FAIR      35  27  72 NW7       30.25R
BEAVER COUNTY  NOT AVBL
BUTLER*        FAIR      34  25  69 NW9       30.22R
PITTSBURGH INT FAIR      38  27  64 NW12      30.21R
PITTSBURGH     FAIR      37  26  64 NW6G17    30.20R
INDIANA*       MOCLDY    34  25  69 NW13G21   30.21R
LATROBE        MOCLDY    36  25  64 NW6       30.21R
WASHINGTON CO* FAIR      36  26  67 N5        30.24
$$

PAZ004>006-010>012-017>019-024>028-033>037-041-042-045-046-049>053-200300-
CENTRAL PENNSYLVANIA

CITY           SKY/WX    TMP DP  RH WIND       PRES   REMARKS
BRADFORD       FLURRIES  30  22  72 NW21G26   30.10R
DUBOIS         CLOUDY    30  22  72 W13       30.13R
CLEARFIELD     CLOUDY    32  21  64 W12       30.14R
JOHNSTOWN      FAIR      31  22  69 NW20G25   30.11R
ALTOONA        MOCLDY    37  21  52 NW14G28   30.14R
STATE COLLEGE  CLOUDY    36  23  60 NW10G21   30.11R
WILLIAMSPORT   CLOUDY    38  25  59 N16G22    30.09R
SELINSGROVE    CLOUDY    39  25  57 NW14G20   30.11R
FT INDIANTOWN  MOCLDY    40  25  54 W10G21    30.08R
CAPITAL CITY   CLOUDY    43  24  47 W15G23    30.10R
HARRISBURG     MOCLDY    42  24  49 NW22G28   30.09R
YORK           FAIR      39  23  52 NW13G22   30.10R
$$

PAZ038>040-043-044-047-048-054-055-060>062-067>071-200300-
EASTERN PENNSYLVANIA

CITY           SKY/WX    TMP DP  RH WIND       PRES   REMARKS
SCRANTON       CLOUDY    34  29  82 NW8       30.03R
MOUNT POCONO   FLURRIES  29  25  85 NW23G31   29.95R
ALLENTOWN      CLOUDY    41  24  51 NW10      30.04R
QUAKERTOWN*    CLOUDY    39  25  56 W8        30.04R
READING        CLOUDY    41  26  55 W17       30.06R
LANCASTER      CLOUDY    40  25  55 NW13      30.08R
COATESVILLE    CLOUDY    39  25  56 NW17      30.08R
POTTSTOWN      CLOUDY    39  24  55 NW10G20   30.07R
BLUE BELL      CLOUDY    37  27  65 NW7       30.07R
DOYLESTOWN     CLOUDY    39  25  57 W10       30.03R
WILLOW GROVE   NOT AVBL
NORTH PHILA    FAIR      42  24  49 W10       30.07R
PHILADELPHIA   FAIR      42  23  46 W14G23    30.08R
$$




USA.gov is the U.S. government's official web portal to all federal, state and local government web resources and services.